THORAD AGENA D DEB, 4822

Orbit data source: Space-Track

THORAD AGENA D DEB, 4822 is space debris in SSO originally from a launch on Wed, 08 Apr 1970 UTC launched from the Air Force Western Test Range (AFWTR). Debris objects in space refer to the collection of defunct objects orbiting the Earth. Examples of debris include non-operational satellites, rocket bodies, and fragments generated from explosions, collisions, or faulty payload assembly.

Loading next visibility...
Identifier
4822, 1970-025ED
Orbit
SSO
Country
Flag of USUS
Related business
Manufacturer
Unknown
Mission
Spacecraft
Bus & Motor
Unknown
Mass
Unknown
Launch date (UTC)
1970-04-08 (56 years ago)
Launch vehicle
Unknown
Launch site
Air Force Western Test Range (AFWTR)
Object type
Payload
Rocket body
Debris
Shape & HBR
Unknown shape, 0.1 m
Radar Cross Section
Medium (>0.1 m² and <1 m²)

Expand to show TLE details & history
Last TLE update: 14 hours ago

TLE from 14 hours ago
0 THORAD AGENA D DEB
1  4822U 70025ED  26123.92460528  .00003753  00000-0  17745-2 0  9994
2  4822  99.3942 294.1223 0050522 221.6300 138.1024 14.19703910784312
Epoch: 2026-05-03T22:11Z
TLE epoch observation values (Epoch: 2026-05-03T22:11:25.896Z)
Latitude
0.00005°
Longitude
99.44322°
Altitude
856.425 km
Speed
7.41 km/s
True Right ascension
19h 36m 29s
True Declination
0° 00' 00"
Sunlit
Object was in daylight at epoch
Visualization orbit readout
Latitude
Unknown
Longitude
Unknown
Altitude
Unknown
Speed
Unknown
Apparent Right ascension
Unknown
Apparent Declination
Unknown
Sunlit
N/A
Visualization observer readout
Local Sidereal Time
19:36:13
Azimuth
Unknown
Elevation
Unknown
Doppler factor
Unknown
Orbital elements
Apogee altitude
859.932 km
Perigee altitude
787.163 km
Semi-major axis
7,201.684 km
Eccentricity
0.00505
Inclination
99.3942°
RAAN
294.1223°
Arg. of periapsis
221.63°
True anomaly
138.4872°
Mean anomaly
138.1024°
Eccentric anomaly
138.29498°
Mean motion
3.55134 °/min
Orbital period
101.37 mins
BSTAR
0.0017745
Loading maneuver chart data...
Computing Atmospheric mass density...
Loading historical data...
Loading historical data...
Loading historical data...
Loading historical data...
Loading historical data...
Loading historical data...
Loading historical data...

Documentation

Showing up to 5 results
|